ELY543 LLBG-LGAV

Flight info

Callsign ELY543
Flight time 1h 51m
Altitude 36000
Route SUVAS N128 OTHON DCT USINI UL995 VARIX
Aircraft B738/M-SDE2E3FGHIRWXY/LB1

Departure

Time 2026-05-07 10:01
Airport Ben Gurion International Airport (LLBG)

Arrival

Time 2026-05-07 11:53
Airport Athens Eleftherios Venizelos International Airport (LGAV)
Time Latitude Longitude Altitude Speed Heading
2026-05-07 09:31 32.00595 34.87349 130 ft 0 kts 180°
2026-05-07 09:46 32.00596 34.87349 130 ft 1 kts 180°
2026-05-07 09:47 32.00610 34.87349 130 ft 2 kts 168°
2026-05-07 09:47 32.00624 34.87342 129 ft 2 kts 140°
2026-05-07 09:47 32.00633 34.87328 129 ft 2 kts 114°
2026-05-07 09:47 32.00640 34.87312 129 ft 2 kts 123°
2026-05-07 09:48 32.00651 34.87300 129 ft 2 kts 155°
2026-05-07 09:48 32.00665 34.87296 129 ft 2 kts 181°
2026-05-07 09:48 32.00680 34.87298 129 ft 2 kts 182°
2026-05-07 09:48 32.00695 34.87298 129 ft 2 kts 182°
2026-05-07 09:49 32.00710 34.87299 128 ft 2 kts 182°
2026-05-07 09:49 32.00725 34.87299 128 ft 2 kts 182°
2026-05-07 09:49 32.00740 34.87301 128 ft 2 kts 211°
2026-05-07 09:49 32.00751 34.87314 128 ft 2 kts 249°
2026-05-07 09:50 32.00753 34.87331 128 ft 2 kts 259°
2026-05-07 09:50 32.00756 34.87349 128 ft 2 kts 269°
2026-05-07 09:50 32.00755 34.87366 128 ft 2 kts 283°
2026-05-07 09:50 32.00750 34.87382 129 ft 1 kts 297°
2026-05-07 09:51 32.00744 34.87395 129 ft 2 kts 304°
2026-05-07 09:51 32.00735 34.87410 129 ft 2 kts 300°
2026-05-07 09:51 32.00728 34.87425 129 ft 2 kts 302°
2026-05-07 09:51 32.00725 34.87430 129 ft 0 kts 302°
2026-05-07 09:54 32.00735 34.87410 128 ft 5 kts 301°
2026-05-07 09:55 32.00776 34.87355 128 ft 12 kts 338°
2026-05-07 09:55 32.00820 34.87405 128 ft 10 kts 108°
2026-05-07 09:55 32.00789 34.87472 128 ft 8 kts 118°
2026-05-07 09:55 32.00748 34.87551 129 ft 14 kts 126°
2026-05-07 09:56 32.00691 34.87659 130 ft 15 kts 120°
2026-05-07 09:56 32.00639 34.87758 131 ft 11 kts 121°
2026-05-07 09:56 32.00593 34.87852 132 ft 15 kts 111°
2026-05-07 09:56 32.00593 34.87906 132 ft 0 kts 63°
2026-05-07 09:57 32.00619 34.87939 132 ft 12 kts 37°
2026-05-07 09:57 32.00735 34.88026 132 ft 26 kts 28°
2026-05-07 09:57 32.00905 34.88144 132 ft 28 kts 31°
2026-05-07 09:57 32.01075 34.88269 133 ft 30 kts 32°
2026-05-07 09:58 32.01263 34.88409 133 ft 31 kts 35°
2026-05-07 09:58 32.01407 34.88594 134 ft 29 kts 58°
2026-05-07 09:58 32.01491 34.88812 136 ft 28 kts 76°
2026-05-07 09:58 32.01527 34.89040 139 ft 27 kts 79°
2026-05-07 09:59 32.01636 34.89150 140 ft 22 kts 348°
2026-05-07 09:59 32.01740 34.89080 139 ft 15 kts 276°
2026-05-07 09:59 32.01738 34.89048 139 ft 0 kts 258°
2026-05-07 10:00 32.01737 34.89043 139 ft 3 kts 258°
2026-05-07 10:00 32.01694 34.88760 136 ft 70 kts 258°
2026-05-07 10:01 32.01571 34.87951 129 ft 128 kts 259°
2026-05-07 10:01 32.01371 34.86747 136 ft 168 kts 251°
2026-05-07 10:01 32.01076 34.85330 412 ft 182 kts 259°
2026-05-07 10:01 32.00727 34.83887 962 ft 187 kts 255°
2026-05-07 10:02 32.00367 34.82378 1363 ft 194 kts 259°
2026-05-07 10:02 32.00026 34.80804 1792 ft 201 kts 258°
2026-05-07 10:02 31.99659 34.79197 2186 ft 211 kts 259°
2026-05-07 10:02 31.99342 34.77468 2678 ft 214 kts 260°
2026-05-07 10:03 31.99172 34.75772 3200 ft 218 kts 277°
2026-05-07 10:03 31.99488 34.73896 3423 ft 244 kts 287°
2026-05-07 10:03 31.99923 34.72042 4499 ft 231 kts 290°
2026-05-07 10:03 32.00439 34.70289 5192 ft 237 kts 290°
2026-05-07 10:04 32.01038 34.68365 5468 ft 262 kts 292°
2026-05-07 10:04 32.01737 34.66326 6020 ft 275 kts 293°
2026-05-07 10:04 32.02442 34.64203 6735 ft 280 kts 290°
2026-05-07 10:04 32.02884 34.61974 7526 ft 283 kts 278°
2026-05-07 10:05 32.03037 34.59645 7917 ft 283 kts 273°
2026-05-07 10:05 32.03087 34.57301 8002 ft 284 kts 272°
2026-05-07 10:05 32.03143 34.54988 8003 ft 282 kts 273°
2026-05-07 10:05 32.03234 34.52663 8004 ft 282 kts 274°
2026-05-07 10:06 32.03352 34.50303 8210 ft 297 kts 275°
2026-05-07 10:06 32.03479 34.47944 9230 ft 288 kts 274°
2026-05-07 10:06 32.03604 34.45625 10093 ft 286 kts 274°
2026-05-07 10:06 32.03734 34.43230 10666 ft 296 kts 275°
2026-05-07 10:07 32.03875 34.40773 11137 ft 310 kts 275°
2026-05-07 10:07 32.04026 34.38187 11594 ft 324 kts 275°
2026-05-07 10:07 32.04184 34.35471 12053 ft 336 kts 275°
2026-05-07 10:07 32.04343 34.32713 12802 ft 339 kts 274°
2026-05-07 10:08 32.04499 34.29955 13535 ft 343 kts 274°
2026-05-07 10:08 32.04661 34.27132 14364 ft 345 kts 275°
2026-05-07 10:08 32.04981 34.24323 15102 ft 348 kts 283°
2026-05-07 10:08 32.05714 34.21644 15909 ft 349 kts 293°
2026-05-07 10:09 32.06789 34.19081 16639 ft 351 kts 298°
2026-05-07 10:09 32.08010 34.16591 17386 ft 354 kts 301°
2026-05-07 10:09 32.09304 34.14104 18098 ft 357 kts 302°
2026-05-07 10:09 32.10627 34.11591 18807 ft 360 kts 302°
2026-05-07 10:10 32.11936 34.09084 19472 ft 364 kts 302°
2026-05-07 10:10 32.13268 34.06506 20132 ft 367 kts 301°
2026-05-07 10:10 32.14581 34.03941 20772 ft 370 kts 301°
2026-05-07 10:10 32.15911 34.01328 21394 ft 373 kts 301°
2026-05-07 10:11 32.17265 33.98679 21984 ft 376 kts 302°
2026-05-07 10:11 32.18687 33.96125 22583 ft 379 kts 304°
2026-05-07 10:11 32.20227 33.93556 23135 ft 382 kts 306°
2026-05-07 10:11 32.21805 33.90997 23715 ft 385 kts 306°
2026-05-07 10:12 32.23387 33.88443 24264 ft 388 kts 306°
2026-05-07 10:12 32.24994 33.85836 24782 ft 392 kts 306°
2026-05-07 10:12 32.26598 33.83214 25319 ft 395 kts 305°
2026-05-07 10:12 32.28187 33.80602 25836 ft 398 kts 305°
2026-05-07 10:13 32.29801 33.77935 26346 ft 400 kts 304°
2026-05-07 10:13 32.31437 33.75222 26828 ft 404 kts 304°
2026-05-07 10:13 32.33076 33.72496 27304 ft 407 kts 304°
2026-05-07 10:13 32.34719 33.69758 27770 ft 410 kts 304°
2026-05-07 10:14 32.36364 33.67014 28208 ft 413 kts 304°
2026-05-07 10:14 32.38024 33.64243 28709 ft 414 kts 304°
2026-05-07 10:14 32.39705 33.61433 29138 ft 417 kts 304°
2026-05-07 10:14 32.41392 33.58611 29536 ft 420 kts 304°
2026-05-07 10:15 32.43088 33.55774 29970 ft 423 kts 304°
2026-05-07 10:15 32.44793 33.52917 30406 ft 425 kts 304°
2026-05-07 10:15 32.46494 33.50066 30774 ft 428 kts 304°
2026-05-07 10:15 32.48225 33.47163 31163 ft 430 kts 304°
2026-05-07 10:16 32.49961 33.44250 31770 ft 427 kts 304°
2026-05-07 10:16 32.51662 33.41394 32431 ft 423 kts 304°
2026-05-07 10:16 32.53352 33.38555 32997 ft 420 kts 304°
2026-05-07 10:16 32.55045 33.35708 33512 ft 419 kts 304°
2026-05-07 10:17 32.56730 33.32869 33999 ft 417 kts 303°
2026-05-07 10:17 32.58409 33.30040 34415 ft 416 kts 303°
2026-05-07 10:17 32.60070 33.27240 34783 ft 415 kts 303°
2026-05-07 10:17 32.61755 33.24395 35059 ft 416 kts 303°
2026-05-07 10:18 32.63405 33.21609 35315 ft 417 kts 303°
2026-05-07 10:18 32.65061 33.18807 35666 ft 415 kts 303°
2026-05-07 10:18 32.66718 33.16004 35928 ft 416 kts 303°
2026-05-07 10:18 32.68378 33.13193 36111 ft 418 kts 303°
2026-05-07 10:19 32.70042 33.10373 36110 ft 420 kts 303°
2026-05-07 10:19 32.73384 33.04707 36112 ft 416 kts 303°
2026-05-07 10:20 32.76716 32.99046 36112 ft 416 kts 303°
2026-05-07 10:20 32.80041 32.93389 36111 ft 414 kts 303°
2026-05-07 10:21 32.83353 32.87746 36112 ft 414 kts 303°
2026-05-07 10:21 32.86621 32.82171 36116 ft 412 kts 303°
2026-05-07 10:22 32.89885 32.76592 36117 ft 411 kts 303°
2026-05-07 10:22 32.93167 32.70976 36116 ft 411 kts 303°
2026-05-07 10:23 32.96411 32.65415 36119 ft 411 kts 303°
2026-05-07 10:23 32.99677 32.59809 36119 ft 411 kts 303°
2026-05-07 10:24 33.02940 32.54199 36122 ft 411 kts 303°
2026-05-07 10:24 33.06183 32.48617 36125 ft 410 kts 303°
2026-05-07 10:25 33.09430 32.43017 36123 ft 410 kts 304°
2026-05-07 10:25 33.12649 32.37460 36127 ft 409 kts 303°
2026-05-07 10:26 33.15891 32.31850 36127 ft 410 kts 303°
2026-05-07 10:26 33.19130 32.26239 36132 ft 409 kts 303°
2026-05-07 10:27 33.22355 32.20647 36132 ft 409 kts 303°
2026-05-07 10:27 33.25575 32.15054 36136 ft 408 kts 303°
2026-05-07 10:28 33.28789 32.09460 36138 ft 407 kts 303°
2026-05-07 10:28 33.31985 32.03891 36137 ft 407 kts 303°
2026-05-07 10:29 33.35203 31.98274 36140 ft 408 kts 303°
2026-05-07 10:29 33.38425 31.92644 36144 ft 407 kts 303°
2026-05-07 10:30 33.43191 31.84298 36144 ft 405 kts 303°
2026-05-07 10:30 33.46369 31.78722 36141 ft 405 kts 304°
2026-05-07 10:31 33.49533 31.73161 36146 ft 406 kts 304°
2026-05-07 10:31 33.52728 31.67540 36147 ft 404 kts 304°
2026-05-07 10:32 33.55895 31.61958 36151 ft 405 kts 304°
2026-05-07 10:32 33.59082 31.56332 36150 ft 405 kts 304°
2026-05-07 10:33 33.62244 31.50743 36150 ft 404 kts 304°
2026-05-07 10:33 33.65397 31.45159 36148 ft 402 kts 304°
2026-05-07 10:34 33.68527 31.39610 36152 ft 403 kts 304°
2026-05-07 10:34 33.71682 31.34007 36153 ft 403 kts 304°
2026-05-07 10:35 33.74802 31.28457 36152 ft 403 kts 304°
2026-05-07 10:35 33.77947 31.22854 36153 ft 402 kts 304°
2026-05-07 10:36 33.81066 31.17289 36152 ft 402 kts 304°
2026-05-07 10:36 33.84185 31.11715 36150 ft 402 kts 304°
2026-05-07 10:37 33.87300 31.06141 36157 ft 403 kts 304°
2026-05-07 10:37 33.90419 31.00550 36153 ft 402 kts 304°
2026-05-07 10:38 33.93543 30.94943 36154 ft 401 kts 304°
2026-05-07 10:38 33.96629 30.89393 36150 ft 400 kts 304°
2026-05-07 10:39 33.99719 30.83828 36152 ft 399 kts 304°
2026-05-07 10:39 34.02804 30.78263 36152 ft 400 kts 304°
2026-05-07 10:40 34.05883 30.72701 36154 ft 400 kts 304°
2026-05-07 10:40 34.08964 30.67125 36153 ft 400 kts 305°
2026-05-07 10:41 34.12046 30.61540 36152 ft 400 kts 304°
2026-05-07 10:41 34.15092 30.56010 36151 ft 398 kts 305°
2026-05-07 10:42 34.18156 30.50444 36152 ft 399 kts 305°
2026-05-07 10:42 34.21227 30.44855 36152 ft 397 kts 305°
2026-05-07 10:43 34.24287 30.39276 36153 ft 399 kts 305°
2026-05-07 10:43 34.27336 30.33708 36154 ft 398 kts 304°
2026-05-07 10:44 34.30394 30.28114 36151 ft 396 kts 304°
2026-05-07 10:44 34.33419 30.22573 36154 ft 397 kts 305°
2026-05-07 10:45 34.36457 30.16998 36149 ft 397 kts 305°
2026-05-07 10:45 34.39482 30.11435 36154 ft 397 kts 304°
2026-05-07 10:46 34.42511 30.05860 36155 ft 397 kts 305°
2026-05-07 10:46 34.45556 30.00252 36152 ft 395 kts 305°
2026-05-07 10:47 34.48803 29.94871 36156 ft 396 kts 309°
2026-05-07 10:47 34.52224 29.89713 36155 ft 394 kts 310°
2026-05-07 10:48 34.55647 29.84549 36154 ft 394 kts 309°
2026-05-07 10:48 34.59032 29.79367 36155 ft 394 kts 309°
2026-05-07 10:49 34.62427 29.74127 36156 ft 392 kts 309°
2026-05-07 10:49 34.65790 29.68911 36153 ft 391 kts 309°
2026-05-07 10:50 34.69125 29.63723 36154 ft 391 kts 309°
2026-05-07 10:50 34.72503 29.58465 36154 ft 392 kts 309°
2026-05-07 10:51 34.75850 29.53245 36153 ft 390 kts 309°
2026-05-07 10:51 34.79165 29.48067 36155 ft 390 kts 310°
2026-05-07 10:52 34.82515 29.42828 36154 ft 389 kts 309°
2026-05-07 10:52 34.85819 29.37651 36156 ft 390 kts 310°
2026-05-07 10:53 34.89139 29.32443 36153 ft 389 kts 309°
2026-05-07 10:53 34.92447 29.27244 36156 ft 387 kts 309°
2026-05-07 10:54 34.95739 29.22063 36154 ft 389 kts 309°
2026-05-07 10:54 34.99040 29.16862 36153 ft 388 kts 309°
2026-05-07 10:55 35.02341 29.11653 36154 ft 388 kts 309°
2026-05-07 10:55 35.05619 29.06471 36154 ft 385 kts 309°
2026-05-07 10:56 35.08875 29.01312 36151 ft 385 kts 309°
2026-05-07 10:56 35.12146 28.96129 36150 ft 386 kts 309°
2026-05-07 10:57 35.15414 28.90944 36145 ft 385 kts 309°
2026-05-07 10:57 35.18676 28.85758 36147 ft 384 kts 309°
2026-05-07 10:58 35.21932 28.80574 36145 ft 384 kts 309°
2026-05-07 10:58 35.25168 28.75413 36142 ft 383 kts 309°
2026-05-07 10:59 35.28426 28.70209 36143 ft 385 kts 308°
2026-05-07 10:59 35.31665 28.65031 36141 ft 384 kts 309°
2026-05-07 11:00 35.34909 28.59838 36139 ft 382 kts 309°
2026-05-07 11:00 35.38132 28.54668 36139 ft 383 kts 308°
2026-05-07 11:01 35.41357 28.49488 36137 ft 381 kts 308°
2026-05-07 11:01 35.44562 28.44331 36137 ft 383 kts 309°
2026-05-07 11:02 35.47811 28.39101 36138 ft 385 kts 308°
2026-05-07 11:02 35.51014 28.33936 36136 ft 382 kts 308°
2026-05-07 11:03 35.54229 28.28738 36134 ft 383 kts 308°
2026-05-07 11:03 35.57459 28.23511 36051 ft 383 kts 308°
2026-05-07 11:04 35.59081 28.20883 36357 ft 385 kts 308°
2026-05-07 11:04 35.60692 28.18270 36136 ft 383 kts 307°
2026-05-07 11:04 35.63898 28.13067 36133 ft 383 kts 308°
2026-05-07 11:05 35.67136 28.07806 36130 ft 385 kts 307°
2026-05-07 11:05 35.70347 28.02574 36130 ft 382 kts 308°
2026-05-07 11:06 35.73566 27.97325 36134 ft 384 kts 307°
2026-05-07 11:06 35.76779 27.92078 36132 ft 383 kts 308°
2026-05-07 11:07 35.79991 27.86828 36129 ft 381 kts 308°
2026-05-07 11:07 35.83170 27.81620 36134 ft 383 kts 307°
2026-05-07 11:08 35.86369 27.76376 36132 ft 382 kts 307°
2026-05-07 11:08 35.89561 27.71129 36134 ft 382 kts 307°
2026-05-07 11:09 35.92753 27.65879 36133 ft 382 kts 307°
2026-05-07 11:09 35.95963 27.60587 36136 ft 381 kts 307°
2026-05-07 11:10 35.99138 27.55343 36132 ft 382 kts 307°
2026-05-07 11:10 36.02339 27.50049 36132 ft 382 kts 307°
2026-05-07 11:11 36.05513 27.44797 36131 ft 380 kts 307°
2026-05-07 11:11 36.08670 27.39563 36132 ft 381 kts 307°
2026-05-07 11:12 36.11830 27.34317 36130 ft 382 kts 306°
2026-05-07 11:12 36.14988 27.29068 36134 ft 381 kts 306°
2026-05-07 11:13 36.18167 27.23772 36131 ft 381 kts 306°
2026-05-07 11:13 36.21323 27.18506 36131 ft 384 kts 306°
2026-05-07 11:14 36.24481 27.13226 36131 ft 379 kts 306°
2026-05-07 11:14 36.27639 27.07945 36133 ft 383 kts 306°
2026-05-07 11:15 36.30804 27.02640 36133 ft 381 kts 306°
2026-05-07 11:15 36.33958 26.97346 36131 ft 382 kts 306°
2026-05-07 11:16 36.37114 26.92039 36133 ft 381 kts 306°
2026-05-07 11:16 36.40259 26.86744 36136 ft 381 kts 306°
2026-05-07 11:17 36.43422 26.81415 36129 ft 381 kts 306°
2026-05-07 11:17 36.46558 26.76113 36131 ft 383 kts 306°
2026-05-07 11:18 36.49724 26.70758 36130 ft 380 kts 306°
2026-05-07 11:18 36.52854 26.65453 36133 ft 382 kts 306°
2026-05-07 11:19 36.55999 26.60115 36131 ft 382 kts 306°
2026-05-07 11:19 36.59136 26.54786 36130 ft 381 kts 306°
2026-05-07 11:20 36.62281 26.49437 36132 ft 382 kts 306°
2026-05-07 11:20 36.65396 26.44122 36130 ft 382 kts 306°
2026-05-07 11:21 36.68532 26.38766 36128 ft 382 kts 305°
2026-05-07 11:21 36.71643 26.33442 36131 ft 382 kts 305°
2026-05-07 11:22 36.74786 26.28062 36129 ft 383 kts 304°
2026-05-07 11:22 36.77908 26.22710 36135 ft 382 kts 304°
2026-05-07 11:23 36.81058 26.17297 36130 ft 383 kts 304°
2026-05-07 11:23 36.84170 26.11940 36130 ft 383 kts 304°
2026-05-07 11:24 36.87294 26.06556 35890 ft 381 kts 305°
2026-05-07 11:24 36.88863 26.03849 36080 ft 382 kts 304°
2026-05-07 11:24 36.90429 26.01142 35966 ft 385 kts 304°
2026-05-07 11:25 36.93557 25.95728 36126 ft 383 kts 304°
2026-05-07 11:25 36.95124 25.93015 36311 ft 387 kts 305°
2026-05-07 11:25 36.96687 25.90308 36128 ft 381 kts 304°
2026-05-07 11:26 36.99791 25.84928 36138 ft 381 kts 304°
2026-05-07 11:26 37.02903 25.79519 36139 ft 383 kts 304°
2026-05-07 11:27 37.05999 25.74127 36139 ft 385 kts 304°
2026-05-07 11:27 37.09109 25.68707 36139 ft 382 kts 304°
2026-05-07 11:28 37.12206 25.63302 36058 ft 383 kts 304°
2026-05-07 11:28 37.13755 25.60593 35648 ft 379 kts 304°
2026-05-07 11:28 37.15282 25.57921 35086 ft 376 kts 304°
2026-05-07 11:29 37.16802 25.55259 34460 ft 375 kts 304°
2026-05-07 11:29 37.18322 25.52594 33838 ft 374 kts 304°
2026-05-07 11:29 37.19830 25.49946 33186 ft 376 kts 304°
2026-05-07 11:29 37.21360 25.47256 32765 ft 386 kts 304°
2026-05-07 11:30 37.22953 25.44454 32304 ft 396 kts 304°
2026-05-07 11:30 37.24547 25.41648 31817 ft 393 kts 304°
2026-05-07 11:30 37.26062 25.38829 31332 ft 387 kts 301°
2026-05-07 11:30 37.27384 25.35915 30863 ft 381 kts 296°
2026-05-07 11:31 37.28455 25.32932 30408 ft 376 kts 291°
2026-05-07 11:31 37.29380 25.29848 29942 ft 371 kts 289°
2026-05-07 11:31 37.30210 25.26817 29488 ft 366 kts 288°
2026-05-07 11:31 37.31003 25.23819 29034 ft 362 kts 288°
2026-05-07 11:32 37.32556 25.17899 28136 ft 354 kts 288°
2026-05-07 11:32 37.33329 25.14975 27669 ft 350 kts 288°
2026-05-07 11:32 37.34099 25.12068 27220 ft 347 kts 288°
2026-05-07 11:33 37.34868 25.09171 26785 ft 361 kts 288°
2026-05-07 11:33 37.35679 25.06127 26300 ft 370 kts 288°
2026-05-07 11:33 37.36485 25.03099 25789 ft 365 kts 288°
2026-05-07 11:33 37.37288 25.00079 25155 ft 360 kts 288°
2026-05-07 11:34 37.38069 24.97145 24645 ft 351 kts 288°
2026-05-07 11:34 37.38831 24.94277 24177 ft 342 kts 288°
2026-05-07 11:34 37.39574 24.91475 23748 ft 337 kts 288°
2026-05-07 11:34 37.40311 24.88699 23306 ft 333 kts 288°
2026-05-07 11:35 37.41040 24.85946 22884 ft 341 kts 288°
2026-05-07 11:35 37.41811 24.83033 22412 ft 353 kts 288°
2026-05-07 11:35 37.42585 24.80105 21950 ft 351 kts 288°
2026-05-07 11:35 37.43339 24.77251 21491 ft 347 kts 288°
2026-05-07 11:36 37.44103 24.74356 21025 ft 344 kts 288°
2026-05-07 11:36 37.44846 24.71537 20556 ft 340 kts 288°
2026-05-07 11:36 37.45585 24.68727 20103 ft 337 kts 288°
2026-05-07 11:36 37.46322 24.65925 19649 ft 334 kts 288°
2026-05-07 11:37 37.47042 24.63179 19183 ft 330 kts 288°
2026-05-07 11:37 37.47752 24.60472 18829 ft 324 kts 288°
2026-05-07 11:37 37.48454 24.57791 18428 ft 320 kts 288°
2026-05-07 11:37 37.49144 24.55150 17992 ft 318 kts 288°
2026-05-07 11:38 37.49831 24.52519 17464 ft 318 kts 288°
2026-05-07 11:38 37.50518 24.49885 16976 ft 317 kts 288°
2026-05-07 11:38 37.51206 24.47246 16530 ft 315 kts 288°
2026-05-07 11:38 37.51881 24.44659 16087 ft 312 kts 288°
2026-05-07 11:39 37.52549 24.42093 15654 ft 310 kts 288°
2026-05-07 11:39 37.53243 24.39426 15208 ft 326 kts 288°
2026-05-07 11:39 37.53968 24.36636 14740 ft 343 kts 289°
2026-05-07 11:39 37.54868 24.33825 14243 ft 359 kts 297°
2026-05-07 11:40 37.56403 24.31287 13728 ft 373 kts 317°
2026-05-07 11:40 37.58701 24.29593 13207 ft 385 kts 339°
2026-05-07 11:40 37.61318 24.28922 12685 ft 391 kts 351°
2026-05-07 11:40 37.64021 24.28621 12140 ft 392 kts 354°
2026-05-07 11:41 37.66755 24.28420 11586 ft 393 kts 355°
2026-05-07 11:41 37.69507 24.28225 11026 ft 394 kts 355°
2026-05-07 11:41 37.72229 24.28011 10472 ft 394 kts 355°
2026-05-07 11:41 37.74982 24.27765 10172 ft 399 kts 354°
2026-05-07 11:42 37.77662 24.27505 10002 ft 371 kts 354°
2026-05-07 11:42 37.80172 24.27250 9590 ft 347 kts 354°
2026-05-07 11:42 37.82503 24.27003 9145 ft 330 kts 354°
2026-05-07 11:42 37.84743 24.26760 8713 ft 314 kts 354°
2026-05-07 11:43 37.86869 24.26528 8301 ft 301 kts 353°
2026-05-07 11:43 37.88918 24.26304 7933 ft 288 kts 354°
2026-05-07 11:43 37.90873 24.26090 7594 ft 278 kts 354°
2026-05-07 11:43 37.92795 24.25880 7226 ft 275 kts 354°
2026-05-07 11:44 37.94702 24.25672 6859 ft 272 kts 354°
2026-05-07 11:44 37.96566 24.25470 6560 ft 266 kts 354°
2026-05-07 11:44 37.98390 24.25273 6461 ft 253 kts 354°
2026-05-07 11:44 38.00082 24.24942 6329 ft 242 kts 344°
2026-05-07 11:45 38.01643 24.24224 5988 ft 241 kts 334°
2026-05-07 11:45 38.03177 24.23311 5669 ft 239 kts 333°
2026-05-07 11:45 38.04672 24.22418 5358 ft 236 kts 334°
2026-05-07 11:45 38.06107 24.21507 5077 ft 227 kts 327°
2026-05-07 11:46 38.07359 24.20342 4815 ft 220 kts 317°
2026-05-07 11:46 38.08498 24.19086 4650 ft 210 kts 316°
2026-05-07 11:46 38.09470 24.17802 4577 ft 194 kts 302°
2026-05-07 11:46 38.09972 24.16295 4408 ft 182 kts 275°
2026-05-07 11:47 38.10049 24.14732 4268 ft 174 kts 270°
2026-05-07 11:47 38.10134 24.13195 4128 ft 175 kts 273°
2026-05-07 11:47 38.10257 24.11667 3979 ft 174 kts 273°
2026-05-07 11:47 38.10330 24.10148 3843 ft 168 kts 262°
2026-05-07 11:48 38.09874 24.08870 3693 ft 159 kts 222°
2026-05-07 11:48 38.08998 24.07985 3534 ft 159 kts 217°
2026-05-07 11:48 38.08146 24.07113 3392 ft 155 kts 217°
2026-05-07 11:48 38.07306 24.06284 3333 ft 153 kts 216°
2026-05-07 11:49 38.06450 24.05465 3092 ft 152 kts 215°
2026-05-07 11:49 38.05593 24.04648 2911 ft 155 kts 216°
2026-05-07 11:49 38.04754 24.03847 2688 ft 148 kts 216°
2026-05-07 11:49 38.03965 24.03098 2462 ft 139 kts 216°
2026-05-07 11:50 38.03181 24.02353 2317 ft 142 kts 217°
2026-05-07 11:50 38.02389 24.01600 2108 ft 141 kts 217°
2026-05-07 11:50 38.01593 24.00844 1924 ft 142 kts 217°
2026-05-07 11:50 38.00811 24.00101 1737 ft 138 kts 217°
2026-05-07 11:51 38.00025 23.99354 1559 ft 141 kts 217°
2026-05-07 11:51 37.99245 23.98614 1374 ft 138 kts 217°
2026-05-07 11:51 37.98478 23.97888 1200 ft 139 kts 217°
2026-05-07 11:51 37.97693 23.97143 1031 ft 143 kts 217°
2026-05-07 11:52 37.96903 23.96391 823 ft 141 kts 217°
2026-05-07 11:52 37.96118 23.95648 665 ft 141 kts 216°
2026-05-07 11:52 37.95322 23.94910 474 ft 138 kts 216°
2026-05-07 11:52 37.94561 23.94192 290 ft 134 kts 218°
2026-05-07 11:53 37.93957 23.93608 268 ft 70 kts 219°
2026-05-07 11:53 37.93682 23.93366 264 ft 38 kts 175°
2026-05-07 11:53 37.93662 23.93551 266 ft 19 kts 68°
2026-05-07 11:53 37.93657 23.93654 266 ft 8 kts 118°
2026-05-07 11:54 37.93599 23.93676 265 ft 11 kts 209°
2026-05-07 11:54 37.93544 23.93627 264 ft 9 kts 214°
2026-05-07 11:54 37.93486 23.93583 263 ft 10 kts 215°
2026-05-07 11:54 37.93428 23.93527 262 ft 10 kts 208°
2026-05-07 11:55 37.93362 23.93555 260 ft 11 kts 129°
2026-05-07 11:55 37.93311 23.93639 259 ft 12 kts 127°
2026-05-07 11:55 37.93259 23.93720 259 ft 11 kts 129°
2026-05-07 11:55 37.93213 23.93798 260 ft 10 kts 127°
2026-05-07 11:56 37.93173 23.93866 261 ft 8 kts 127°
2026-05-07 11:56 37.93144 23.93914 263 ft 5 kts 127°
2026-05-07 11:56 37.93102 23.93985 267 ft 17 kts 127°
2026-05-07 11:56 37.93020 23.94124 271 ft 18 kts 126°
2026-05-07 11:57 37.92948 23.94246 275 ft 15 kts 125°
2026-05-07 11:57 37.92891 23.94346 279 ft 13 kts 112°
2026-05-07 11:57 37.92933 23.94454 280 ft 15 kts 37°
2026-05-07 11:57 37.93010 23.94529 282 ft 13 kts 38°
2026-05-07 11:58 37.93085 23.94582 283 ft 11 kts 15°
2026-05-07 11:58 37.93153 23.94594 286 ft 9 kts
2026-05-07 11:58 37.93214 23.94614 288 ft 8 kts 21°
2026-05-07 11:58 37.93264 23.94650 291 ft 7 kts 34°
2026-05-07 11:59 37.93319 23.94702 294 ft 14 kts 37°
2026-05-07 11:59 37.93410 23.94788 296 ft 15 kts 37°
2026-05-07 11:59 37.93491 23.94866 296 ft 13 kts 37°
2026-05-07 11:59 37.93553 23.94912 294 ft 5 kts 353°
2026-05-07 12:00 37.93576 23.94889 295 ft 2 kts 312°
2026-05-07 12:00 37.93594 23.94864 296 ft 3 kts 309°
2026-05-07 12:00 37.93601 23.94852 297 ft 3 kts 307°
2026-05-07 12:00 37.93602 23.94851 297 ft 0 kts 307°